Location: Rochester
(43.1610°N, 77.6109°W)
Time: 10:47:08
(UTC-04:00)

Envisat - Visible Passes

Search period start: 22 April 2019 00:00
Search period end: 02 May 2019 00:00
Orbit: 764 x 766 km, 98.2° (Epoch: 22 April)

Date Brightness Start Highest point End Pass type
(mag) Time Alt. Az. Time Alt. Az. Time Alt. Az.
22 Apr 5.0 20:29:35 10° SSW 20:34:04 31° W 20:38:35 10° NNW visible
24 Apr 5.7 20:56:21 10° SW 20:59:50 18° W 21:03:19 10° NW visible
27 Apr 5.5 20:44:31 10° SW 20:48:29 23° W 20:52:30 10° NW visible
29 Apr 5.9 21:11:58 10° WSW 21:14:18 13° W 21:16:39 10° WNW visible
